Bainbridge, GA

9:33 PM EST on February 25, 2018 (GMT -0500)
Decatur County Industrial

Weather History for KBGE - September, 2012

Change the Weather History Date:

Monday, September 10, 2012

  Actual Average (KTLH) Record (KTLH)
Temperature  
Mean Temperature 74 °F -  
Max Temperature 86 °F 89 °F 98 °F (1954)
Min Temperature 62 °F 69 °F 54 °F (1969)
Cooling Degree Days 9    
Growing Degree Days 24 (Base 50)    
Moisture  
Dew Point 61 °F    
Average Humidity 67    
Maximum Humidity 94    
Minimum Humidity 33    
Precipitation  
Precipitation 0.00 in - - ()
Sea Level Pressure  
Sea Level Pressure 30.04 in    
Wind  
Wind Speed 3 mph (ENE)    
Max Wind Speed 13 mph    
Max Gust Speed 21 mph    
Visibility 10 miles    
Events      
Averages and records for this station are not official NWS values.
T = Trace of Precipitation, MM = Missing Value Source: NWS Daily Summary

Daily Weather History Graph

Daily Weather History Graph

Search for Another Location

Airport or City:

Trip Planner

Search our weather history database for the weather conditions in past years. The results will help you decide how hot, cold, wet, or windy it might be!

Date:

Astronomy

Sep. 10, 2012 Rise Set
Actual Time 7:20 AM EDT 7:49 PM EDT
Civil Twilight 6:55 AM EDT 8:14 PM EDT
Nautical Twilight 6:27 AM EDT 8:42 PM EDT
Astronomical Twilight 5:58 AM EDT 9:11 PM EDT
Moon 1:57 AM EDT (9/10) 4:03 PM EDT (9/10)
Length of Visible Light 13h 18m
Length of Day
12h 29m
Waning Crescent, 30% of the Moon is Illuminated
Sep 10
Waning Crescent
Sep 15
New
Sep 22
First Quarter
Sep 29
Full
Oct 8
Last Quarter

Hourly Weather History & Observations

Time (EDT) Temp. Heat Index Dew Point Humidity Pressure Visibility Wind Dir Wind Speed Gust Speed Precip Events Conditions
12:15 AM 68.0 °F - 62.6 °F 83% 29.98 in 10.0 mi Calm Calm - N/A   Clear
12:35 AM 64.4 °F - 62.6 °F 94% 29.98 in 10.0 mi Calm Calm - N/A   Clear
12:55 AM 68.0 °F - 62.6 °F 83% 29.98 in 10.0 mi Calm Calm - N/A   Clear
1:15 AM 68.0 °F - 62.6 °F 83% 29.99 in 10.0 mi Calm Calm - N/A   Clear
1:35 AM 64.4 °F - 62.6 °F 94% 29.99 in 10.0 mi Calm Calm - N/A   Clear
1:55 AM 68.0 °F - 62.6 °F 83% 29.99 in 10.0 mi Calm Calm - N/A   Clear
2:15 AM 64.4 °F - 62.6 °F 94% 29.99 in 10.0 mi Calm Calm - N/A   Clear
2:35 AM 64.4 °F - 62.6 °F 94% 29.99 in 10.0 mi Calm Calm - N/A   Clear
2:55 AM 68.0 °F - 62.6 °F 83% 29.99 in 10.0 mi Calm Calm - N/A   Clear
3:15 AM 66.2 °F - 62.6 °F 88% 29.99 in 10.0 mi Calm Calm - N/A   Clear
3:35 AM 66.2 °F - 60.8 °F 83% 29.99 in 10.0 mi Calm Calm - N/A   Clear
3:55 AM 64.4 °F - 62.6 °F 94% 29.99 in 10.0 mi Calm Calm - N/A   Clear
4:15 AM 64.4 °F - 62.6 °F 94% 30.00 in 10.0 mi Calm Calm - N/A   Clear
4:35 AM 64.4 °F - 62.6 °F 94% 30.00 in 10.0 mi NNE 3.5 mph - N/A   Clear
4:55 AM 64.4 °F - 60.8 °F 88% 30.00 in 10.0 mi Calm Calm - N/A   Clear
5:15 AM 64.4 °F - 60.8 °F 88% 30.00 in 10.0 mi Calm Calm - N/A   Clear
5:35 AM 64.4 °F - 60.8 °F 88% 30.00 in 10.0 mi Calm Calm - N/A   Clear
5:55 AM 64.4 °F - 60.8 °F 88% 30.00 in 10.0 mi Calm Calm - N/A   Clear
6:35 AM 64.4 °F - 60.8 °F 88% 30.02 in 10.0 mi Calm Calm - N/A   Clear
6:55 AM 64.4 °F - 60.8 °F 88% 30.02 in 10.0 mi Calm Calm - N/A   Clear
7:15 AM 62.6 °F - 60.8 °F 94% 30.03 in 10.0 mi Calm Calm - N/A   Clear
7:35 AM 62.6 °F - 60.8 °F 94% 30.04 in 10.0 mi NNE 3.5 mph - N/A   Clear
7:55 AM 64.4 °F - 60.8 °F 88% 30.05 in 10.0 mi Calm Calm - N/A   Clear
8:15 AM 66.2 °F - 62.6 °F 88% 30.06 in 10.0 mi NE 3.5 mph - N/A   Clear
8:35 AM 68.0 °F - 62.6 °F 83% 30.06 in 10.0 mi Calm Calm - N/A   Clear
8:55 AM 71.6 °F - 66.2 °F 83% 30.06 in 10.0 mi ENE 4.6 mph - N/A   Clear
9:15 AM 71.6 °F - 64.4 °F 78% 30.06 in 10.0 mi ENE 4.6 mph - N/A   Clear
9:35 AM 73.4 °F - 64.4 °F 73% 30.06 in 10.0 mi ENE 3.5 mph - N/A   Clear
9:55 AM 73.4 °F - 64.4 °F 73% 30.06 in 10.0 mi ENE 8.1 mph - N/A   Clear
10:15 AM 77.0 °F - 66.2 °F 69% 30.07 in 10.0 mi ENE 6.9 mph - N/A   Clear
10:35 AM 78.8 °F - 64.4 °F 61% 30.08 in 10.0 mi ENE 6.9 mph - N/A   Clear
10:55 AM 80.6 °F 82.3 °F 64.4 °F 58% 30.08 in 10.0 mi East 9.2 mph - N/A   Clear
11:15 AM 80.6 °F 82.3 °F 64.4 °F 58% 30.08 in 10.0 mi ENE 10.4 mph - N/A   Clear
11:35 AM 82.4 °F 83.9 °F 64.4 °F 54% 30.08 in 10.0 mi ENE 10.4 mph 16.1 mph N/A   Clear
11:55 AM 82.4 °F 83.4 °F 62.6 °F 51% 30.08 in 10.0 mi ENE 11.5 mph - N/A   Scattered Clouds
12:15 PM 82.4 °F 82.9 °F 60.8 °F 48% 30.08 in 10.0 mi NE 12.7 mph - N/A   Clear
12:35 PM 82.4 °F 82.9 °F 60.8 °F 48% 30.08 in 10.0 mi ENE 12.7 mph 18.4 mph N/A   Clear
12:55 PM 82.4 °F 82.9 °F 60.8 °F 48% 30.07 in 10.0 mi NE 8.1 mph 17.3 mph N/A   Clear
1:15 PM 84.2 °F 84.4 °F 60.8 °F 45% 30.07 in 10.0 mi ENE 9.2 mph 20.7 mph N/A   Clear
1:35 PM 86.0 °F 85.4 °F 59.0 °F 40% 30.07 in 10.0 mi East 10.4 mph - N/A   Clear
1:55 PM 86.0 °F 84.5 °F 55.4 °F 35% 30.07 in 10.0 mi East 8.1 mph 12.7 mph N/A   Clear
2:15 PM 86.0 °F 84.5 °F 55.4 °F 35% 30.06 in 10.0 mi NE 10.4 mph - N/A   Clear
2:35 PM 86.0 °F 84.5 °F 55.4 °F 35% 30.06 in 10.0 mi East 8.1 mph 16.1 mph N/A   Clear
2:55 PM 86.0 °F 84.5 °F 55.4 °F 35% 30.05 in 10.0 mi ENE 10.4 mph 17.3 mph N/A   Clear
3:15 PM 86.0 °F 84.2 °F 53.6 °F 33% 30.05 in 10.0 mi NE 8.1 mph 17.3 mph N/A   Clear
3:35 PM 86.0 °F 84.5 °F 55.4 °F 35% 30.04 in 10.0 mi NE 9.2 mph - N/A   Clear
3:55 PM 86.0 °F 84.2 °F 53.6 °F 33% 30.04 in 10.0 mi ENE 5.8 mph - N/A   Clear
4:15 PM 86.0 °F 84.5 °F 55.4 °F 35% 30.04 in 10.0 mi East 6.9 mph - N/A   Clear
4:35 PM 86.0 °F 84.5 °F 55.4 °F 35% 30.04 in 10.0 mi East 6.9 mph - N/A   Clear
4:55 PM 84.2 °F 83.0 °F 55.4 °F 37% 30.04 in 10.0 mi ENE 9.2 mph - N/A   Clear
5:15 PM 86.0 °F 84.5 °F 55.4 °F 35% 30.04 in 10.0 mi East 9.2 mph - N/A   Clear
5:35 PM 86.0 °F 84.2 °F 53.6 °F 33% 30.04 in 10.0 mi ENE 9.2 mph - N/A   Clear
5:55 PM 86.0 °F 84.5 °F 55.4 °F 35% 30.04 in 10.0 mi East 6.9 mph - N/A   Clear
6:15 PM 84.2 °F 83.0 °F 55.4 °F 37% 30.05 in 10.0 mi East 6.9 mph - N/A   Clear
6:35 PM 82.4 °F 81.7 °F 55.4 °F 39% 30.05 in 10.0 mi ENE 9.2 mph - N/A   Clear
6:55 PM 82.4 °F 81.7 °F 55.4 °F 39% 30.05 in 10.0 mi East 4.6 mph - N/A   Clear
7:15 PM 80.6 °F 81.1 °F 59.0 °F 48% 30.06 in 10.0 mi East 4.6 mph - N/A   Clear
7:35 PM 78.8 °F - 62.6 °F 57% 30.06 in 10.0 mi East 4.6 mph - N/A   Clear
7:55 PM 77.0 °F - 62.6 °F 61% 30.06 in 10.0 mi ENE 3.5 mph - N/A   Clear
8:15 PM 77.0 °F - 62.6 °F 61% 30.07 in 10.0 mi Calm Calm - N/A   Clear
8:35 PM 73.4 °F - 62.6 °F 69% 30.07 in 10.0 mi Calm Calm - N/A   Clear
8:55 PM 73.4 °F - 62.6 °F 69% 30.07 in 10.0 mi Calm Calm - N/A   Clear
9:15 PM 73.4 °F - 60.8 °F 65% 30.08 in 10.0 mi Calm Calm - N/A   Clear
9:35 PM 71.6 °F - 64.4 °F 78% 30.08 in 10.0 mi Calm Calm - N/A   Clear
9:55 PM 71.6 °F - 64.4 °F 78% 30.08 in 10.0 mi Calm Calm - N/A   Clear
10:15 PM 71.6 °F - 64.4 °F 78% 30.08 in 10.0 mi Calm Calm - N/A   Clear
10:35 PM 69.8 °F - 62.6 °F 78% 30.09 in 10.0 mi Calm Calm - N/A   Clear
10:55 PM 69.8 °F - 62.6 °F 78% 30.09 in 10.0 mi Calm Calm - N/A   Clear
11:15 PM 69.8 °F - 62.6 °F 78% 30.09 in 10.0 mi Calm Calm - N/A   Clear
11:35 PM 68.0 °F - 62.6 °F 83% 30.10 in 10.0 mi Calm Calm - N/A   Clear
11:55 PM 68.0 °F - 60.8 °F 78% 30.09 in 10.0 mi East 3.5 mph - N/A   Clear